Location: Courcelles
(49.2596°N, 1.7419°E)
Time: 03:05:13
(UTC+00:00)

CZ-4C R/B - Pass Details

Date: 17 November 2025
Orbit: 487 x 1492 km, 63.4° (Epoch: 04 December)

Event Time Altitude Azimuth Distance (km) Brightness Sun altitude
Rises 18:12:56 0° 283° (WNW) 3,038 6.4 -20.0°
Reaches altitude 10° 18:15:32 10° 300° (WNW) 2,269 5.2 -20.4°
Maximum altitude 18:19:39 23° 351° (N) 1,785 3.9 -21.1°
Enters shadow 18:22:29 17° 26° (NNE) 2,222 4.1 -21.6°
